Regional Weather Roundup
Issued by NWS Sterling, VA

Home | Current Version | Previous Version | Graphics & Text | Print | Product List | Glossary On
Versions: 1 2 3 4 5 6 7 8 9 10 11 12 13 14 15 16 17 18 19 20 21 22 23 24 25 26 27 28 29 30 31 32 33 34 35 36 37 38 39 40 41 42 43 44 45 46 47 48 49 50
000
ASUS41 KLWX 211910
RWRLWX

REGIONAL WEATHER ROUNDUP
NATIONAL WEATHER SERVICE BALTIMORE MD/WASHINGTON DC
300 PM EDT MON JUL 21 2014

Note: "FAIR" indicates few or no clouds below 12,000 feet
with no significant weather and/or obstructions to visibility.
 TC=TEMPERATURE CELSIUS

 * =Non NWS site. Station does not report precipitation (e.g. rain,
    snow, etc.), thunder, or fog.

DCZ001-MDZ009-015-VAZ040>042-051-053>054-212000-
WASHINGTON METRO
  /KDAA//-FT BELVOIR

CITY           SKY/WX    TMP DP  RH WIND       PRES   REMARKS
WASHINGTON NAT CLOUDY    85  64  49 E6        30.16F
DULLES         PTSUNNY   80  66  62 S6        30.16F
ANDREWS AFB    PTSUNNY   81  67  61 E10       30.17S
QUANTICO       PTSUNNY   82  69  64 SE6       30.16F
COLLEGE PARK*  CLOUDY    82  64  54 E5        30.17S
LEESBURG*      CLOUDY    81  72  74 NE7       30.17F
GAITHERSBURG*  PTSUNNY   81  70  69 E6        30.21S

$$

MDZ006>007-011-014-212000-
BALTIMORE METRO

CITY           SKY/WX    TMP DP  RH WIND       PRES   REMARKS
BWI AIRPORT    CLOUDY    80  63  55 E6        30.17F
MD SCIENCE CTR   N/A     81  60  48 MISG      30.18S
MARTIN STATE   MOSUNNY   81  70  69 S3        30.19F
ANNAPOLIS      CLOUDY    78  66  66 SE5       30.18S
FORT MEADE*    MOSUNNY   81  64  57 E5        30.20S

$$

MDZ012-015-019>023-212000-
MARYLAND EASTERN SHORE

CITY           SKY/WX    TMP DP  RH WIND       PRES   REMARKS
OCEAN CITY     CLOUDY    76  68  76 E9        30.19S
SALISBURY      NOT AVBL
BAY BRIDGE AP*   N/A     81  64  57 N3        30.18S
CAMBRIDGE*     MOSUNNY   82  63  51 E6        30.17F
EASTON*        MOSUNNY   82  66  57 SE3       30.21S

$$

MDZ017>025-212000-
SOUTHERN MARYLAND

CITY           SKY/WX    TMP DP  RH WIND       PRES   REMARKS
PATUXENT RIVER PTSUNNY   79  66  64 SE9       30.17F
ST INIGOES     CLOUDY    80  65  59 E8        30.17F
LEONARDTOWN*   MOSUNNY   79  64  61 E6        30.18F

$$

MDZ003>005-212000-
NORTH CENTRAL MARYLAND

CITY           SKY/WX    TMP DP  RH WIND       PRES   REMARKS
FREDERICK*     PTSUNNY   82  72  69 VRB5      30.20S
HAGERSTOWN APT CLOUDY    77  68  73 S6        30.17F
WESTMINSTER*   CLOUDY    79  66  65 SE5       30.20F

$$

MDZ501>502-212000-
WESTERN MARYLAND

CITY           SKY/WX    TMP DP  RH WIND       PRES   REMARKS
OAKLAND*       PTSUNNY   75  68  78 S6        30.24S
CUMBERLAND*    MOSUNNY   90  66  45 SE6       30.17F HX  92

$$

VAZ025>031-212000-
SHENANDOAH VALLEY

CITY           SKY/WX    TMP DP  RH WIND       PRES   REMARKS
WINCHESTER*    PTSUNNY   81  70  69 SE7       30.16F
STAUNTON*      PTSUNNY   80  65  61 SE5       30.19S

$$

WVZ021-048>050-054>055-212000-
EASTERN WEST VIRGINIA PANHANDLE

CITY           SKY/WX    TMP DP  RH WIND       PRES   REMARKS
MARTINSBURG    CLOUDY    80  67  64 E5        30.17S
PETERSBURG*    PTSUNNY   82  59  46 E5        30.14S

$$

VAZ036>039-050-212000-
CENTRAL FOOTHILLS

CITY           SKY/WX    TMP DP  RH WIND       PRES   REMARKS
CHARLOTTESVILL LGT RAIN  80  70  71 E6        30.15F
ORANGE*        CLOUDY    79  68  69 CALM      30.17R

$$

VAZ055>057-212000-
NORTH AND CENTRAL PIEDMONT

CITY           SKY/WX    TMP DP  RH WIND       PRES   REMARKS
FREDERICKSBRG* PTSUNNY   83  69  60 SE3       30.14S
STAFFORD*      CLOUDY    81  70  68 E9G16     30.19F

$$

NCZ024-NYZ072-PAZ021-071-VAZ022-071-212000-
OTHER REGIONAL OBSERVATIONS

CITY           SKY/WX    TMP DP  RH WIND       PRES   REMARKS
NEW YORK CITY  SUNNY     83  58  42 NE3       30.18F
PHILADELPHIA   MOSUNNY   84  57  39 SE5       30.15F
PITTSBURGH     PTSUNNY   82  65  56 SW3       30.14S
ROANOKE        CLOUDY    78  67  68 CALM      30.18F
RICHMOND       CLOUDY    79  72  79 E7        30.16F
RALEIGH        LGT RAIN  75  72  90 CALM      30.14R FOG

$$

ANZ530>537-212000-
MARINE OBSERVATIONS

STATION/POSITION TIME  TEMP    WIND        PRES
                       AIR SEA DIR/SP/G
                 (UTC) (F)     (DEG/KT/KT) (MB)
THOMAS PT LIGHT  1900   76 79  200/  2/  3 1022.3F
BALT KEY BRIDGE  1900   77     130/  6/  8 1021.7S
COVE POINT       1900   75     180/  7/  8 1021.8F
LEWISETTA        1900   76 80  110/  9/  9 1021.5F
SOLOMONS ISLAND  1900      81                N/A
PINEY POINT      1900          160/  9/ 10   N/A

$$




USA.gov is the U.S. government's official web portal to all federal, state and local government web resources and services.